Location: Lango�lan
(48.1202°N, 3.2340°W)
Time: 12:51:14
(UTC+00:00)

MOS 1-B - Pass Details

Date: 23 October 2019
Orbit: 906 x 913 km, 99.4° (Epoch: 16 November)

Event Time Altitude Azimuth Distance (km) Brightness Sun altitude
Rises 05:44:01 0° 14° (NNE) 3,560 7.6 -10.6°
Reaches altitude 10° 05:46:27 10° 12° (NNE) 2,614 6.8 -10.2°
Maximum altitude 05:52:15 73° 290° (WNW) 956 4.3 -9.2°
Drops below altitude 10° 05:58:01 10° 206° (SSW) 2,595 6.6 -8.3°
Sets 06:00:26 0° 205° (SSW) 3,532 7.3 -7.9°
